Regional Weather Roundup
Issued by NWS

Home | Current Version | Previous Version | Text Only | Print | Product List | Glossary Off
Versions: 1 2 3 4 5 6 7 8 9 10 11 12 13 14 15 16 17 18 19 20 21 22 23 24 25 26 27 28 29 30 31 32 33 34 35 36 37 38 39 40 41 42 43 44 45 46 47 48 49 50

000
ASUS43 KLMK 241402
RWRKY
KENTUCKY REGIONAL WEATHER ROUNDUP
NATIONAL WEATHER SERVICE LOUISVILLE KY
900 AM EST MON NOV 24 2014

NOTE "FAIR" INDICATES FEW OR NO CLOUDS BELOW 12,000 FEET
WITH NO SIGNIFICANT WEATHER AND/OR OBSTRUCTIONS TO VISIBILITY.

KYZ001>023-026-027-061>063-070>075-241500-
WESTERN AND SOUTH CENTRAL KENTUCKY

CITY           SKY/WX    TMP DP  RH WIND       PRES   REMARKS
PADUCAH        CLOUDY    45  36  70 W13       29.66R
HENDERSON      CLOUDY    46  39  76 W21G28    29.56R
OWENSBORO      LGT RAIN  47  46  96 W23G32    29.55R FOG
HOPKINSVILLE   CLOUDY    52  47  82 W31       29.61R
BOWLING GREEN  HVY RAIN  57  51  80 SW20G30   29.56R
GLASGOW        NOT AVBL
$$

KYZ024-025-028>034-038-045-046-053-241500-
NORTH CENTRAL KENTUCKY

CITY           SKY/WX    TMP DP  RH WIND       PRES   REMARKS
LOUISVILLE/SDF LGT RAIN  59  51  75 SW23G45   29.41R
LOUISVILLE/LOU LGT RAIN  61  50  67 SW25G41   29.39R
FORT KNOX      CLOUDY    59  48  67 SW38G48   29.42R SQUALL
$$

KYZ035>037-039>044-047>052-055>060-089>105-241500-
NORTHEAST KENTUCKY

CITY           SKY/WX    TMP DP  RH WIND       PRES   REMARKS
LEXINGTON      SUNNY     61  49  64 SW33G48   29.44R
COVINGTON      CLOUDY    61  48  62 S29G40    29.32R
FRANKFORT      CLOUDY    62  49  62 SW33G44   29.41R
$$

KYZ054-064>069-076>088-106>120-241500-
SOUTHEAST KENTUCKY

CITY           SKY/WX    TMP DP  RH WIND       PRES   REMARKS
JACKSON        PTSUNNY   62  48  60 VRB7      29.54R
LONDON         PTSUNNY   64  48  56 SW25G40   29.58R
SOMERSET       CLOUDY    63  46  55 SW23G35   29.57R
MIDDLESBORO    CLOUDY    62  53  72 SW13      29.64R
MONTICELLO     PTSUNNY   65  52  62 SW18G36   29.60R
$$




USA.gov is the U.S. government's official web portal to all federal, state and local government web resources and services.